Regional Weather Roundup
Issued by NWS

Home | Current Version | Previous Version | Text Only | Print | Product List | Glossary Off
Versions: 1 2 3 4 5 6 7 8 9 10 11 12 13 14 15 16 17 18 19 20 21 22 23 24 25 26 27 28

000
ASUS45 KTFX 201410
RWRMT
MONTANA REGIONAL WEATHER ROUNDUP
NATIONAL WEATHER SERVICE GREAT FALLS MT
800 AM MDT FRI APR 20 2018

NOTE: "FAIR" INDICATES FEW OR NO CLOUDS BELOW 12000 FEET WITH NO
SIGNIFICANT WEATHER AND/OR OBSTRUCTIONS TO VISIBILITY.

MTZ001>007-043-201500-
WEST OF THE DIVIDE

CITY           SKY/WX    TMP DP  RH WIND       PRES   REMARKS
KALISPELL      FAIR      29  26  89 CALM      30.19R
MISSOULA       FAIR      34  27  75 CALM      30.22R
BUTTE          FAIR      29  23  78 CALM      30.18R
MULLAN PASS    FAIR      34  25  69 VRB3      30.18R
ANACONDA         N/A     39  23  52 CALM      30.18S
DEER LODGE       N/A     34  27  75 CALM      30.21R
HAMILTON         N/A     36  27  69 MISG      30.21R
PLAINS           N/A     29  24  81 CALM      30.22R
RONAN            N/A     34  30  86 CALM      30.21R
$$

MTZ008-052>055-201500-
SOUTHWEST MONTANA

CITY           SKY/WX    TMP DP  RH WIND       PRES   REMARKS
BOZEMAN        FAIR      36  29  75 S6        30.16R WCI  31
DILLON         FAIR      35  26  69 S7        30.14R WCI  29
ENNIS          SUNNY     30  27  86 CALM      30.16R
W YELLOWSTONE  FAIR      28  21  74 CALM      30.08R
THREE FORKS      N/A     35  30  82 CALM      30.13R
TWIN BRIDGES     N/A     36  25  65 N3        30.11R
$$

MTZ009-010-012-014-046-048-049-054-201500-
EAST SLOPES AND CENTRAL MONTANA

CITY           SKY/WX    TMP DP  RH WIND       PRES   REMARKS
CUT BANK       FAIR      38  28  67 CALM      30.10R
GREAT FALLS    FAIR      40  32  73 SW10      30.13R
HELENA         FAIR      38  30  73 CALM      30.15R
AUGUSTA        FAIR      40  24  52 W7        30.12R
BOWMANS CRNR   FAIR      34  27  75 SW7       30.12R WCI  28
CHOTEAU          N/A     39  27  60 S6        30.13R
FAIRFIELD      FAIR      40  27  59 S3        30.11R
POWER          FAIR      37  30  78 SW3       30.12R
RAYNESFORD     FAIR      36  29  75 CALM      30.14R
ULM            FAIR      38  33  81 CALM      30.14R
WHITE SULPHUR    N/A     32  27  80 CALM      30.14R
$$

MTZ011-013-016-021-045-047-050-051-201500-
NORTH CENTRAL MONTANA

CITY           SKY/WX    TMP DP  RH WIND       PRES   REMARKS
HAVRE          FAIR      37  34  89 W5        30.12R
LEWISTOWN      FAIR      39  32  76 SE3       30.12R
N BAR RANCH    FAIR      45  30  57 CALM      30.14R
CHINOOK          N/A     39  36  87 E9        30.13R
GEYSER         FAIR      44  32  62 SW13      30.13R
GRASS RANGE    FAIR      42  34  73 CALM      30.09R
STANFORD       FAIR      46  31  54 NW12      30.12R
$$

MTZ017>020-022>027-061-062-201500-
NORTHEAST MONTANA

CITY           SKY/WX    TMP DP  RH WIND       PRES   REMARKS
GLASGOW        FAIR      42  33  70 E14       30.15S
GLENDIVE       FAIR      37  29  72 E13       30.17F WCI  29
JORDAN           N/A     40  33  76 E3        30.13R
MALTA          SUNNY     39  36  87 NE7       30.13R
SIDNEY         FAIR      39  31  72 E5        30.22S
WOLF POINT     FAIR      41  33  73 E13       30.18F
PLENTYWOOD       N/A     39  34  81 CALM      30.21S
POPLAR           N/A     41  32  70 E8        30.20S
SCOBEY           N/A     39  28  65 E2        30.16R
$$

MTZ028>42-056>058-201500-
SOUTHCENTRAL AND SOUTHEAST MONTANA

CITY           SKY/WX    TMP DP  RH WIND       PRES   REMARKS
BAKER          FAIR      35  31  85 SE14      30.15S WCI  26
BILLINGS       FAIR      42  35  76 W7        30.10R
MILES CITY     FAIR      40  34  79 NE7       30.12R
BIG TIMBER     SUNNY     39  30  70 W12       30.14  WCI  32
EKALAKA          N/A     40  27  60 SE15      30.07R
FORSYTH          N/A     43  36  75 E5        30.10R
HARLOWTON      FAIR      36  30  80 W16       30.11R WCI  26
LAUREL           N/A     41  34  75 S6        30.12R
$$

REGIONAL REPORTS...DAKOTAS

CITY           SKY/WX    TMP DP  RH WIND       PRES   REMARKS
WILLISTON      FAIR      39  31  72 NE6       30.23S
MINOT          FAIR      39  30  70 SE8       30.30S
DICKINSON      FAIR      37  30  75 SE14      30.20S WCI  28
BEACH          FAIR      36  30  80 SE14G20   30.20F WCI  27
CROSBY         FAIR      37  36  93 E6        30.26S
TIOGA          FAIR      34  34 100 E7        30.26F WCI  28
WATFORD CITY   FAIR      37  32  81 SE9       30.23S WCI  31
BISMARCK       FAIR      38  28  67 SE8       30.33S
GRAND FORKS    FAIR      39  33  79 S7        30.41R
FARGO          FAIR      41  32  70 S8        30.44R
BUFFALO SD       N/A     41  28  60 SE12      30.10R
RAPID CITY     FAIR      43  31  62 SE14      30.15R
$$

REGIONAL REPORTS...WYOMING/IDAHO/WASHINGTON

CITY           SKY/WX    TMP DP  RH WIND       PRES   REMARKS
GILLETTE       FAIR      41  28  60 SE12      30.07R
SHERIDAN       FAIR      43  35  73 W9        30.07R
BUFFALO WY     FAIR      40  29  64 S5        30.06R
YELLOWSTONE LA   N/A     35  16  45 CALM      30.11R
IDAHO FALLS    FAIR      44  27  51 N18       30.00R
SALMON         FAIR      34  28  79 CALM      30.17R
BOISE          FAIR      43  30  60 NW7       30.11R
SPOKANE        FAIR      39  32  76 SE12      30.18R WCI  32
$$

REGIONAL REPORTS...ALBERTA

CITY           SKY/WX    TMP DP  RH WIND       PRES   REMARKS
CALGARY        PTSUNNY   37  27  65 NE5       30.05R
CARDSTON         N/A     43  21  42 W8          N/A
EDMONTON       SUNNY     41  23  48 W3        30.01R
FORT MCMURRAY  SUNNY     45  28  53 SW12      29.91S
HIGH LEVEL     MOSUNNY   36  27  69 SE8       29.73R WCI  29
LETHBRIDGE     PTSUNNY   41  27  56 W10       30.07R
LLOYDMINSTER   PTSUNNY   39  34  81 S9        30.01R
MEDICINE HAT   PTSUNNY   45  36  70 SW10      30.06S
MILK RIVER       N/A     36  28  75 W7          N/A  WCI  30
PEACE RIVER    PTSUNNY   34  25  69 CALM      29.92R
PINCHER CREEK  CLOUDY    45  25  45 W12       30.08R
$$

REGIONAL REPORTS...SASKATCHEWAN

CITY           SKY/WX    TMP DP  RH WIND       PRES   REMARKS
CORONACH         N/A     37  34  87 E8          N/A  WCI  31
CYPRESS HILLS    N/A     36  28  75 S5          N/A
ESTEVAN        PTSUNNY   36  32  87 E9        30.27R WCI  29
MOOSE JAW        N/A     36  32  87 SE8         N/A  WCI  29
PRINCE ALBERT  MOSUNNY   37  30  75 S9        30.19S WCI  31
REGINA         MOSUNNY   36  32  87 SE15G22   30.22S WCI  26
ROCKGLEN         N/A     37  32  81 S10         N/A  WCI  30
SASKATOON      MOSUNNY   41  30  65 SE10      30.14F
SWIFT CURRENT  SUNNY     41  32  70 S16       30.09R
VAL MARIE        N/A     41  34  75 SE7         N/A
$$




USA.gov is the U.S. government's official web portal to all federal, state and local government web resources and services.